Location: Arbon
(43.0005°N, 0.7472°E)
Time: 23:26:52
(UTC+00:00)

deb Explorer IX - All Passes

Search period start: 05 December 2020 00:00
Search period end: 15 December 2020 00:00
Orbit: 537 x 1105 km, 38.8° (Epoch: 05 December)

Date Brightness Start Highest point End Pass type
(mag) Time Alt. Az. Time Alt. Az. Time Alt. Az.
05 Dec - 12:21:03 10° SSW 12:26:12 21° SSE 12:31:07 10° E daylight
05 Dec - 14:06:06 10° SW 14:12:48 45° SSE 14:18:49 10° E daylight
05 Dec - 15:53:04 10° WSW 15:59:43 60° S 16:05:27 10° ESE daylight
05 Dec - 17:40:35 10° W 17:46:28 43° SSW 17:51:29 10° SE visible
05 Dec - 19:29:08 10° WSW 19:32:28 16° SW 19:35:31 10° S visible
06 Dec - 11:57:30 10° SSW 12:02:45 22° SSE 12:07:47 10° E daylight
06 Dec - 13:42:33 10° SW 13:49:21 46° SSE 13:55:31 10° E daylight
06 Dec - 15:29:30 10° WSW 15:36:19 61° S 15:42:13 10° ESE daylight
06 Dec - 17:17:02 10° W 17:23:06 44° SSW 17:28:18 10° SE visible
06 Dec - 19:05:34 10° WSW 19:09:08 17° SW 19:12:24 10° S visible
07 Dec - 11:33:58 10° SSW 11:39:17 22° SSE 11:44:26 10° E daylight
07 Dec - 13:18:59 10° SW 13:25:53 47° SSE 13:32:12 10° E daylight
07 Dec - 15:05:57 10° WSW 15:12:53 61° S 15:18:58 10° ESE daylight
07 Dec - 16:53:29 10° W 16:59:43 45° SSW 17:05:06 10° SE visible
07 Dec - 18:41:59 10° WSW 18:45:47 18° SW 18:49:16 10° S visible
08 Dec - 11:10:27 10° SSW 11:15:48 22° SE 11:21:03 10° E daylight
08 Dec - 12:55:28 10° SW 13:02:23 47° SSE 13:08:52 10° E daylight
08 Dec - 14:42:23 10° WSW 14:49:26 62° S 14:55:41 10° E daylight
08 Dec - 16:29:55 10° W 16:36:19 46° SSW 16:41:52 10° SE daylight
08 Dec - 18:18:23 10° WSW 18:22:26 18° SW 18:26:07 10° S visible
09 Dec - 10:46:57 10° SSW 10:52:19 22° SE 10:57:38 10° E daylight
09 Dec - 12:31:56 10° SW 12:38:54 48° SSE 12:45:31 10° E daylight
09 Dec - 14:18:50 10° WSW 14:25:58 63° S 14:32:23 10° E daylight
09 Dec - 16:06:21 10° W 16:12:54 46° SSW 16:18:38 10° SE daylight
09 Dec - 17:54:47 10° W 17:59:03 19° SW 18:02:56 10° S visible
10 Dec - 10:23:28 10° SSW 10:28:49 22° SE 10:34:12 10° E daylight
10 Dec - 12:08:26 10° SW 12:15:24 48° SSE 12:22:08 10° E daylight
10 Dec - 13:55:18 10° WSW 14:02:29 63° S 14:09:03 10° E daylight
10 Dec - 15:42:47 10° W 15:49:27 47° SSW 15:55:21 10° SE daylight
10 Dec - 17:31:11 10° W 17:35:40 20° SW 17:39:45 10° S visible
11 Dec - 10:00:01 10° SSW 10:05:19 22° SE 10:10:44 10° E daylight
11 Dec - 11:44:56 10° SW 11:51:53 48° SSE 11:58:42 10° E daylight
11 Dec - 13:31:45 10° WSW 13:38:59 63° S 13:45:43 10° E daylight
11 Dec - 15:19:12 10° W 15:25:59 47° SSW 15:32:03 10° SE daylight
11 Dec - 17:07:35 10° W 17:12:15 20° SW 17:16:31 10° S visible
12 Dec - 09:36:35 10° SSW 09:41:50 22° SE 09:47:14 10° E daylight
12 Dec - 11:21:27 10° SW 11:28:22 48° SSE 11:35:16 10° E daylight
12 Dec - 13:08:14 10° WSW 13:15:29 64° S 13:22:20 10° E daylight
12 Dec - 14:55:39 10° W 15:02:31 48° SSW 15:08:44 10° SE daylight
12 Dec - 16:43:59 10° W 16:48:50 21° SW 16:53:17 10° S visible
13 Dec - 09:13:10 10° SSW 09:18:20 22° SE 09:23:43 10° E daylight
13 Dec - 10:57:59 10° SW 11:04:51 48° SSE 11:11:48 10° E daylight
13 Dec - 12:44:43 10° W 12:51:58 64° S 12:58:56 10° E daylight
13 Dec - 14:32:05 10° W 14:39:02 48° SSW 14:45:24 10° SE daylight
13 Dec - 16:20:23 10° W 16:25:23 21° SW 16:30:00 10° S daylight
14 Dec - 08:49:47 10° SSW 08:54:51 22° SE 09:00:10 10° E daylight
14 Dec - 10:34:32 10° SW 10:41:20 48° SSE 10:48:19 10° E daylight
14 Dec - 12:21:13 10° W 12:28:27 64° S 12:35:30 10° E daylight
14 Dec - 14:08:32 10° W 14:15:32 49° SSW 14:22:03 10° SE daylight
14 Dec - 15:56:47 10° W 16:01:56 22° SW 16:06:42 10° SSE daylight
